Home   Weather   Jeddah   Past weeks
Flag for Saudi Arabia

Past Weather in Jeddah, Saudi Arabia — Yesterday and Last 2 Weeks

Now
90 °F

Passing clouds.


Feels Like: 95 °F
Forecast: 97 / 82 °F
Wind: 5 mph from Northwest

Location: Jeddah King Abdul Aziz International Airport

Current Time: May 21, 2019 at 10:12:18 pm

Latest Report: May 21, 2019 at 9:00 pm


Visibility: N/A

Pressure: 29.83 "Hg

Humidity: 52%

Dew Point: 70 °F

Location of JeddahLocation

Past Weather in Jeddah — Graph

°F

Jeddah Temperature Yesterday

Maximum temperature yesterday: 95 °F (at 10:00 am)
Minimum temperature yesterday: 81 °F (at 4:00 am)
Average temperature yesterday: 89 °F

High & Low Weather Summary for the Past Weeks

 TemperatureHumidityPressure
High104 °F (May 17, 12:00 pm)74% (May 8, 10:00 pm)29.89 "Hg (May 8, 10:00 pm)
Low77 °F (May 10, 5:00 am)17% (May 13, 10:00 am)29.65 "Hg (May 16, 4:00 pm)
Average89 °F46%29.76 "Hg
* Reported May 6 9:00 pm — May 21 9:00 pm, Jeddah. Weather by CustomWeather, © 2019

Note: Actual official high and low records may vary slightly from our data, if they occured in-between our weather recording intervals... More about our weather records

Advertising

Jeddah Weather History for the Previous 24 Hours

Scroll right to see more
 ConditionsComfort  
Time TempWeatherWind HumidityBarometerVisibility
9:00 pm
Tue, May 21
90 °FPassing clouds.5 mph52%29.83 "HgN/A
8:00 pm91 °FThunderstorms. Passing clouds.7 mph44%29.83 "HgN/A
7:00 pm91 °FPassing clouds.9 mph56%29.80 "HgN/A
6:00 pm93 °FPassing clouds.9 mph53%29.77 "HgN/A
5:00 pm93 °FPassing clouds.14 mph44%29.80 "HgN/A
4:00 pm93 °FPassing clouds.14 mph47%29.80 "HgN/A
3:00 pm93 °FPassing clouds.13 mph47%29.83 "HgN/A
2:00 pm95 °FPassing clouds.12 mph34%29.83 "HgN/A
1:00 pm95 °FSunny.7 mph34%29.86 "Hg10 mi
12:00 pm95 °FSunny.12 mph34%29.86 "Hg10 mi
11:00 am95 °FSunny.3 mph34%29.89 "Hg10 mi
10:00 am93 °FSunny.No wind39%29.89 "Hg10 mi
9:00 am93 °FSunny.No wind36%29.89 "Hg10 mi
8:00 am90 °FSunny.No wind41%29.86 "Hg10 mi
7:00 am84 °FSunny.No wind51%29.86 "Hg10 mi
6:00 am84 °FSunny.5 mph55%29.83 "Hg10 mi
5:00 am84 °FClear.9 mph51%29.83 "Hg10 mi
4:00 am84 °FClear.No wind58%29.83 "Hg10 mi
3:00 am84 °FClear.5 mph62%29.83 "Hg10 mi
2:00 am86 °FClear.No wind52%29.83 "Hg10 mi
1:00 am86 °FClear.7 mph52%29.83 "Hg10 mi
12:00 am88 °FPassing clouds.6 mph46%29.86 "HgN/A
11:00 pm
Mon, May 20
90 °FPassing clouds.5 mph43%29.83 "HgN/A
10:00 pm90 °FPassing clouds.9 mph43%29.83 "HgN/A
Weather by CustomWeather, © 2019

See weather overview